Retour au catalogue

SL-16 DEB

ActifPO
NORAD 28436·DEBRIS·🇷🇺 Russia

Lancé Dec 10, 2001 depuis Baikonur Cosmodrome

Loading…

Prochains Passages (prochaines 24 heures)

TLE

FraisSource: Space-Track

Époque: Sep 14, 2026, 06:35 UTC

1 28436U 01056K   26257.27461740  .00000009  00000-0  97380-4 0  9998
2 28436  99.4776 190.1479 0191866 291.0168 226.4242 13.29066900200501

Suivez SL-16 DEB en temps réel avec AllMySat

Download on the App Store